Location: Arcizac-Adour
(43.1561°N, 0.0992°E)
Time: 07:04:59
(UTC+00:00)

Daily predictions for brighter satellites

Satellite Brightness Start Highest point End
(mag) Time Altitude Azimuth Time Altitude Azimuth Time Altitude Azimuth
In-Cosmos 22 4.2 18:04:24 10° N 18:09:43 85° W 18:15:00 10° S
USA 215 4.1 18:04:11 10° NE 18:10:28 51° NNW 18:16:43 10° WSW
Tsikada Rocket 4.4 18:04:13 10° SSW 18:10:37 75° W 18:17:03 10° N
SL-4 R/B 3.6 18:09:31 10° NW 18:13:21 28° N 18:17:23 10° ENE
ARGOS Delta rocket 4.3 18:11:56 10° NNE 18:17:04 47° E 18:21:54 10° S
SKYMED 3 4.4 18:15:10 10° NNE 18:19:18 84° ESE 18:23:24 10° SSW
BREEZE-M DEB (TANK) 3.7 18:15:49 10° SW 18:19:44 71° SE 18:34:19 10° ENE
Okean O Rocket 2.3 18:17:01 10° SE 18:20:55 34° ENE 18:24:53 10° N
Cosmos 2219 3.4 18:20:08 10° NNW 18:25:54 79° WSW 18:31:39 10° SSE
CZ-2C R/B 3.0 18:24:08 10° SW 18:26:10 16° S 18:28:14 10° SSE
Cosmos 1242 Rocket 2.5 18:22:45 10° S 18:26:16 62° E 18:29:48 10° NNE
BREEZE M DEB (TANK) 4.1 18:20:45 10° SSW 18:28:32 28° SSE 18:31:25 13° E
Spot 1 3.9 18:26:10 10° NNE 18:30:26 80° ESE 18:34:31 10° SSW
SL-14 R/B 3.7 18:28:18 10° N 18:32:03 40° ENE 18:35:49 10° SSE
Cosmos 1805 3.2 18:29:16 10° S 18:33:04 60° E 18:36:55 10° NNE
Cosmos 2263 Rocket 2.7 18:27:53 10° NNW 18:33:14 39° ENE 18:38:32 10° SE
YAOGAN 1 2.6 18:30:28 10° SSE 18:34:41 57° ENE 18:38:56 10° N
Cosmos 1674 Rocket 4.0 18:32:23 10° N 18:36:33 40° ENE 18:40:44 10° SSE
Cosmos 1726 2.5 18:33:24 10° SSE 18:36:47 37° E 18:40:11 10° NNE
COBE Rocket 3.8 18:32:03 10° SSE 18:36:56 69° ENE 18:41:43 10° N
OBJECT-B 2.5 18:38:57 12° NE 18:38:57 12° NE 18:39:34 10° NE
Cosmos 2082 3.7 18:39:03 10° NNW 18:44:49 81° ENE 18:50:33 10° SSE
Cosmos 1674 4.1 18:41:33 10° NNW 18:45:06 41° W 18:48:36 10° SSW
USA 267 3.7 18:38:44 10° SE 18:45:13 63° SW 18:51:43 10° NW
Cosmos 1766 3.6 18:43:23 10° SSE 18:47:02 40° E 18:50:44 10° NNE
Cosmos 1697 Rocket 3.8 18:45:33 10° SW 18:50:55 46° WNW 18:56:21 10° NNE
Cosmos 2279 Rocket 4.3 18:51:54 10° NNW 18:58:09 73° W 19:04:22 10° S
Cosmos 2221 Rocket 3.7 18:54:32 10° N 18:59:05 84° W 19:03:37 10° S
IGS 5A 4.3 18:59:48 26° E 19:00:49 29° ENE 19:04:24 10° N
ASTEX 1 4.3 18:57:01 10° N 19:01:51 52° W 19:06:40 10° SSW
Resurs 01 Rocket 3.7 19:05:25 12° NE 19:05:25 12° NE 19:06:33 10° NNE
Cosmos 1378 Rocket 3.4 19:01:24 10° N 19:05:48 84° E 19:10:08 10° S
Cosmos 1733 4.4 19:03:39 10° SSW 19:07:14 43° WNW 19:10:50 10° N
Cosmos 968 Rocket 3.9 19:03:14 10° S 19:08:04 39° ESE 19:12:55 10° NE
Cosmos 1470 4.4 19:15:56 20° NE 19:15:56 20° NE 19:17:23 10° NNE
Cosmos 1733 Rocket 4.3 19:10:13 10° SSW 19:14:26 43° WNW 19:18:42 10° N
Cosmos 2227 Rocket 4.5 19:13:01 10° NW 19:17:28 24° WSW 19:21:55 10° SSW
USA 229 4.5 19:13:25 10° NW 19:20:44 59° WSW 19:28:29 10° SSE
CZ-4B R/B 4.2 19:16:28 10° S 19:21:35 47° W 19:26:50 10° NNW
Cosmos 2322 Rocket 3.6 19:17:31 10° SSE 19:27:51 - NE 19:19:41 21° SSE
ISS -3.7 19:19:16 10° NW 19:22:35 60° NNE 19:22:45 59° NE
CSL-04 Rocket 3.7 19:21:40 27° SE 19:24:27 58° ENE 19:29:44 10° N
Okean-O 2.8 19:24:10 43° ESE 19:25:02 50° ENE 19:29:20 10° N
Resurs 1-3 4.0 19:26:17 41° ENE 19:26:19 41° ENE 19:30:27 10° N
CZ-4 R/B 2.2 19:22:17 10° S 19:26:21 53° W 19:30:27 10° NNW
Cosmos 841 Rocket 4.0 19:21:20 10° NNW 19:26:25 58° WSW 19:31:26 10° S
Feng Yun 1-1 Rocket 4.4 19:21:30 10° S 19:27:01 71° WSW 19:32:27 10° NNW
SJ-6B 2.5 19:30:24 66° E 19:30:27 66° ENE 19:34:11 10° N
Cosmos 1980 Rocket 3.3 19:25:49 10° SW 19:31:11 44° WNW 19:36:33 10° NNE
Meteor 1-12 Rocket 4.4 19:27:12 10° S 19:33:11 84° W 19:39:15 10° N
Meteor 2-21 Rocket 4.4 19:27:21 10° S 19:33:25 83° W 19:39:31 10° N
Cosmos 1570 Rocket 4.1 19:28:30 10° NNW 19:33:41 56° ENE 19:34:49 46° ESE
Cosmos 1627 Rocket 4.4 19:30:24 10° S 19:36:22 59° E 19:42:22 10° NNE
OAO 2 Rocket 4.3 19:34:57 10° SW 19:39:12 30° S 19:39:12 30° S
USA 186 2.3 19:40:04 58° NNW 19:40:04 58° NNW 19:42:52 10° NNW
Cosmos 1428 Rocket 4.3 19:37:38 10° S 19:43:45 75° E 19:49:59 10° N
Cosmos 2195 Rocket 4.3 19:37:43 10° S 19:43:54 79° E 19:50:12 10° N
Cosmos 2278 4.2 19:40:49 10° SW 19:46:26 60° WNW 19:52:05 10° NNE
Cosmos 1437 Rocket 2.9 19:44:15 10° SSW 19:47:59 65° W 19:51:43 10° N
SL-16 R/B 2.0 19:44:00 10° SSW 19:49:38 72° ESE 19:55:18 10° NNE
Meteor 1-24 Rocket 3.4 19:45:10 10° N 19:50:29 74° E 19:51:24 59° SE
SL-4 R/B 2.5 19:49:02 10° NW 19:53:27 57° NNE 19:53:27 57° NNE
Cosmos 2208 Rocket 3.9 19:51:43 10° NNW 19:57:05 71° ENE 19:57:21 70° E
Okean O Rocket 3.9 19:53:54 10° SSW 19:57:19 23° W 20:00:47 10° NW
Meteor 1-22 Rocket 4.1 19:53:51 10° SSW 19:59:12 81° W 20:04:46 10° N
Cosmos 1844 Rocket 3.3 19:54:28 10° NNW 19:59:17 40° NE 19:59:17 40° NE
Cosmos 2026 Rocket 3.8 19:55:20 10° S 20:01:24 90° ESE 20:07:30 10° N
Cosmos 2285 Rocket 4.2 19:56:28 10° NNW 20:02:47 69° WSW 20:05:47 33° S
USA 81 3.9 19:58:02 10° N 20:03:21 87° E 20:03:45 77° SSE
Cosmos 1782 Rocket 4.0 20:06:55 58° NW 20:06:55 58° NW 20:10:39 10° N
OBJECT-B 3.9 20:09:47 11° NW 20:09:47 11° NW 20:09:55 10° NW
Cosmos 1553 Rocket 4.1 20:03:49 10° N 20:09:44 58° ENE 20:09:44 58° ENE
H-2A R/B 4.3 20:15:56 23° N 20:15:56 23° N 20:17:29 10° N
USA 281 4.5 20:16:22 25° NE 20:16:22 25° NE 20:20:55 10° N
Cosmos 2263 Rocket 3.7 20:12:01 10° NW 20:17:02 32° WSW 20:20:24 18° SSW
Cosmos 1844 4.4 20:16:04 10° NNW 20:20:06 41° NNE 20:20:06 41° NNE
Meteor 2-5 Rocket 4.3 20:16:44 10° NNW 20:22:05 51° W 20:23:46 38° SW
SPOT 1/Viking Rocket 4.3 20:32:06 45° N 20:32:06 45° N 20:35:37 10° NNW
Resurs 01 Rocket 3.6 20:42:59 24° NNW 20:42:59 24° NNW 20:44:50 10° NNW
Cosmos 2322 Rocket 4.1 21:00:57 10° SW 21:09:30 22° N 21:11:43 10° NNE
SL-16 R/B 4.5 21:30:11 10° W 21:34:19 20° NW 21:38:29 10° N
